TimeWET,TemperatureF,Dew PointF,Humidity,Sea Level PressureIn,VisibilityMPH,Wind Direction,Wind SpeedMPH,Gust SpeedMPH,PrecipitationIn,Events,Conditions,WindDirDegrees,DateUTC
12:00 AM,58,52,75,30.12,6,SSW,2.3,,,,Partly Cloudy,200,2013-12-07 00:00:00
12:00 AM,59.0,51.8,77,30.12,6.2,Variable,2.3,-,N/A,,Scattered Clouds,0,2013-12-07 00:00:00
12:30 AM,59.0,50.0,72,30.12,6.2,SSW,4.6,-,N/A,,Scattered Clouds,210,2013-12-07 00:30:00
1:00 AM,60.8,50.0,68,30.12,6.2,SW,4.6,-,N/A,,Scattered Clouds,220,2013-12-07 01:00:00
1:30 AM,57.2,50.0,77,30.12,6.2,Variable,1.2,-,N/A,,Scattered Clouds,0,2013-12-07 01:30:00
2:00 AM,57.2,51.8,82,30.12,6.2,SSE,2.3,-,N/A,,Scattered Clouds,150,2013-12-07 02:00:00
2:30 AM,57.2,51.8,82,30.12,6.2,Calm,Calm,-,N/A,,Scattered Clouds,0,2013-12-07 02:30:00
3:00 AM,55,50,79,30.14,6,West,2.3,,,,Partly Cloudy,270,2013-12-07 03:00:00
3:00 AM,55.4,50.0,82,30.12,6.2,West,2.3,-,N/A,,Scattered Clouds,270,2013-12-07 03:00:00
3:30 AM,55.4,50.0,82,30.12,6.2,Variable,1.2,-,N/A,,Scattered Clouds,0,2013-12-07 03:30:00
4:00 AM,55.4,50.0,82,30.12,6.2,SSW,1.2,-,N/A,,Scattered Clouds,210,2013-12-07 04:00:00
4:30 AM,53.6,51.8,94,30.12,6.2,Variable,2.3,-,N/A,,Scattered Clouds,0,2013-12-07 04:30:00
5:00 AM,53.6,50.0,88,30.12,6.2,Variable,1.2,-,N/A,,Scattered Clouds,0,2013-12-07 05:00:00
5:30 AM,53.6,51.8,94,30.12,6.2,Calm,Calm,-,N/A,,Scattered Clouds,0,2013-12-07 05:30:00
6:00 AM,53,51,91,30.15,6,Calm,Calm,,,,Scattered Clouds,,2013-12-07 06:00:00
6:00 AM,53.6,51.8,94,30.15,6.2,Calm,Calm,-,N/A,,Scattered Clouds,0,2013-12-07 06:00:00
6:30 AM,53.6,50.0,88,30.15,6.2,Calm,Calm,-,N/A,,Scattered Clouds,0,2013-12-07 06:30:00
7:00 AM,55.4,51.8,88,30.15,6.2,East,2.3,-,N/A,,Mostly Cloudy,80,2013-12-07 07:00:00
7:30 AM,55.4,51.8,88,30.15,6.2,ENE,3.5,-,N/A,,Mostly Cloudy,70,2013-12-07 07:30:00
7:32 AM,55.4,51.8,88,30.18,6.2,ENE,2.3,-,N/A,Hail,Hail,60,2013-12-07 07:32:00
7:35 AM,55.4,51.8,88,30.18,3.1,ENE,3.5,-,N/A,Hail,Hail,60,2013-12-07 07:35:00
7:36 AM,55.4,51.8,88,30.18,3.1,ENE,3.5,-,N/A,Hail,Hail,60,2013-12-07 07:36:00
7:40 AM,55.4,51.8,88,30.18,5.0,East,4.6,-,N/A,Rain,Rain,90,2013-12-07 07:40:00
8:00 AM,55.4,53.6,94,30.18,5.0,SSE,3.5,-,N/A,Rain,Rain,150,2013-12-07 08:00:00
8:30 AM,55.4,51.8,88,30.18,5.0,ESE,3.5,-,N/A,Rain,Rain,120,2013-12-07 08:30:00
9:00 AM,57,54,88,30.20,6,North,2.3,,,,Partly Cloudy,10,2013-12-07 09:00:00
9:00 AM,57.2,53.6,88,30.21,6.2,Calm,Calm,-,N/A,,Mostly Cloudy,0,2013-12-07 09:00:00
9:30 AM,57.2,53.6,88,30.21,6.2,ESE,4.6,-,N/A,,Mostly Cloudy,120,2013-12-07 09:30:00
10:00 AM,59.0,53.6,82,30.21,6.2,SE,4.6,-,N/A,,Mostly Cloudy,130,2013-12-07 10:00:00
10:30 AM,60.8,51.8,72,30.21,6.2,SSE,3.5,-,N/A,,Mostly Cloudy,160,2013-12-07 10:30:00
11:00 AM,62.6,51.8,68,30.24,6.2,Variable,2.3,-,N/A,,Mostly Cloudy,0,2013-12-07 11:00:00
11:30 AM,64.4,48.2,56,30.24,6.2,Calm,Calm,-,N/A,,Mostly Cloudy,0,2013-12-07 11:30:00
12:00 PM,64,50,49,30.20,6,East,3.5,,,,,90,2013-12-07 12:00:00
12:00 PM,64.4,50.0,59,30.21,6.2,East,3.5,-,N/A,,Scattered Clouds,90,2013-12-07 12:00:00
12:30 PM,66.2,50.0,56,30.21,6.2,Variable,1.2,-,N/A,,Scattered Clouds,0,2013-12-07 12:30:00
1:00 PM,66.2,48.2,52,30.21,6.2,Variable,1.2,-,N/A,,Scattered Clouds,0,2013-12-07 13:00:00
1:30 PM,69.8,48.2,46,30.18,6.2,Variable,2.3,-,N/A,,Scattered Clouds,0,2013-12-07 13:30:00
2:00 PM,69.8,48.2,46,30.18,6.2,Variable,1.2,-,N/A,,Scattered Clouds,0,2013-12-07 14:00:00
2:30 PM,69.8,48.2,46,30.18,6.2,Variable,2.3,-,N/A,,Scattered Clouds,0,2013-12-07 14:30:00
3:00 PM,70,47,33,30.12,6,North,3.5,,,,Partly Cloudy,350,2013-12-07 15:00:00
3:00 PM,69.8,48.2,46,30.18,6.2,North,4.6,-,N/A,,Scattered Clouds,350,2013-12-07 15:00:00
3:30 PM,69.8,48.2,46,30.18,6.2,North,3.5,-,N/A,,Scattered Clouds,360,2013-12-07 15:30:00
4:00 PM,69.8,48.2,46,30.18,6.2,ENE,5.8,-,N/A,,Scattered Clouds,70,2013-12-07 16:00:00
4:30 PM,69.8,46.4,43,30.18,6.2,Variable,2.3,-,N/A,,Scattered Clouds,0,2013-12-07 16:30:00
5:00 PM,68.0,48.2,49,30.18,6.2,East,5.8,-,N/A,,Scattered Clouds,100,2013-12-07 17:00:00
5:30 PM,68.0,48.2,49,30.18,6.2,SE,3.5,-,N/A,,Scattered Clouds,130,2013-12-07 17:30:00
5:45 PM,67,48,40,30.15,6,SSE,3.5,,,,Partly Cloudy,150,2013-12-07 17:45:00
6:00 PM,68.0,48.2,49,30.18,6.2,SSE,3.5,-,N/A,,Scattered Clouds,150,2013-12-07 18:00:00
6:30 PM,64.4,50.0,59,30.18,6.2,Variable,1.2,-,N/A,,Scattered Clouds,0,2013-12-07 18:30:00
7:00 PM,62.6,51.8,68,30.21,6.2,Variable,2.3,-,N/A,,Scattered Clouds,0,2013-12-07 19:00:00
7:30 PM,62.6,51.8,68,30.21,6.2,Variable,2.3,-,N/A,,Scattered Clouds,0,2013-12-07 19:30:00
8:00 PM,60.8,50.0,68,30.21,6.2,Variable,1.2,-,N/A,,Scattered Clouds,0,2013-12-07 20:00:00
9:00 PM,60,45,47,30.22,6,NE,9.2,,,,Scattered Clouds,40,2013-12-07 21:00:00
9:00 PM,59.0,46.4,63,30.21,6.2,NE,9.2,-,N/A,,Scattered Clouds,40,2013-12-07 21:00:00
9:30 PM,60.8,41.0,48,30.24,6.2,NE,10.4,-,N/A,,Scattered Clouds,40,2013-12-07 21:30:00
10:00 PM,60.8,42.8,52,30.24,6.2,ENE,5.8,-,N/A,,Scattered Clouds,60,2013-12-07 22:00:00
10:30 PM,57.2,44.6,63,30.24,6.2,East,3.5,-,N/A,,Scattered Clouds,80,2013-12-07 22:30:00
11:00 PM,55.4,46.4,72,30.24,6.2,ENE,3.5,-,N/A,,Scattered Clouds,70,2013-12-07 23:00:00
11:30 PM,53.6,46.4,77,30.24,6.2,East,4.6,-,N/A,,Partly Cloudy,90,2013-12-07 23:30:00